Orbital Elements at Epoch 2459000.5 (2020-May-31.0) TDB
Reference: JPL 28 (heliocentric ecliptic J2000)
Element | Value | Uncertainty (1-sigma) | Units |
e | .04672438258365978 | 2.916e-08 | |
a | 2.23364440183781 | 7.5951e-09 | au |
q | 2.12927874625049 | 6.5948e-08 | au |
i | 6.28930661919856 | 4.1559e-06 | deg |
node | 202.8478527752343 | 2.8283e-05 | deg |
peri | 93.95354086969932 | 5.4213e-05 | deg |
M | 102.9594481059256 | 4.5448e-05 | deg |
tp | 2458651.774919353477 (2019-Jun-17.27491935) | 0.00015434 | TDB |
period | 1219.324999718244 3.34 | 6.2191e-06 1.703e-08 | d yr |
n | .2952453202248681 | 1.5059e-09 | deg/d |
Q | 2.33801005742513 | 7.9499e-09 | au |
|
| | Orbit Determination Parameters
Additional Information
|